DW2891 Weather Reports


time (UTC)temp
C
wind
direction
speed
KPH
gust
KPH
rain 1hr
cm
rain 24hr
cm
rain mn
cm
humidity
%
barometer
mb
20260503055104 18 317 0.0 0.0 0.00 0.00 0.00 52 1014.8
20260503054604 18 317 0.0 3.2 0.00 0.00 0.00 51 1014.8
20260503054104 18 317 3.2 12.9 0.00 0.00 0.00 50 1014.7
20260503053605 19 15 0.0 4.8 0.00 0.00 0.00 47 1014.7
20260503052604 18 28 0.0 0.0 0.00 0.00 0.00 49 1014.7
20260503052105 19 28 1.6 9.7 0.00 0.00 0.00 46 1014.7
20260503051604 19 78 0.0 8.0 0.00 0.00 0.00 47 1014.8
20260503050604 18 304 0.0 8.0 0.00 0.00 0.00 48 1014.8
20260503044605 18 29 0.0 0.0 0.00 0.00 0.00 44 1014.7
20260503044105 18 13 0.0 0.0 0.00 0.00 0.00 46 1014.7
20260503043605 19 8 1.6 14.5 0.00 0.00 0.00 44 1014.7
20260503042604 19 167 0.0 16.1 0.00 0.00 0.00 44 1014.5
20260503042104 18 5 0.0 0.0 0.00 0.00 0.00 48 1014.6
20260503041604 19 5 0.0 0.0 0.00 0.00 0.00 47 1014.4
20260503041106 19 5 0.0 1.6 0.00 0.00 0.00 43 1014.4
20260503040605 19 346 0.0 1.6 0.00 0.00 0.00 47 1014.5
20260503040104 18 345 0.0 4.8 0.00 0.00 0.00 49 1014.4
20260503035105 19 346 3.2 12.9 0.00 0.00 0.00 47 1014.3
20260503034104 19 325 0.0 14.5 0.00 0.00 0.00 50 1014.3
20260503033604 19 28 0.0 3.2 0.00 0.00 0.00 50 1014.2
20260503033104 19 28 0.0 0.0 0.00 0.00 0.00 47 1014.1
20260503032604 19 28 0.0 0.0 0.00 0.00 0.00 50 1014.0
20260503031605 19 28 0.0 3.2 0.00 0.00 0.00 47 1014.0
20260503031104 19 34 1.6 9.7 0.00 0.00 0.00 45 1013.9
20260503030604 19 315 1.6 16.1 0.00 0.00 0.00 51 1013.9
20260503030104 19 5 0.0 0.0 0.00 0.00 0.00 53 1013.9
20260503025605 19 5 0.0 0.0 0.00 0.00 0.00 50 1013.8
20260503025105 19 5 0.0 0.0 0.00 0.00 0.00 51 1013.8
20260503024105 19 348 0.0 0.0 0.00 0.00 0.00 49 1013.7
20260503023604 20 348 0.0 0.0 0.00 0.00 0.00 50 1013.7
20260503023104 20 348 0.0 0.0 0.00 0.00 0.00 49 1013.7
20260503022604 20 348 0.0 0.0 0.00 0.00 0.00 49 1013.8
20260503021605 20 348 0.0 0.0 0.00 0.00 0.00 49 1013.8
20260503020604 20 348 0.0 0.0 0.00 0.00 0.00 50 1013.8
20260503020105 20 348 0.0 0.0 0.00 0.00 0.00 48 1013.8
20260503015104 21 348 1.6 9.7 0.00 0.00 0.00 43 1013.9
20260503014604 21 311 1.6 8.0 0.00 0.00 0.00 49 1014.1
20260503014104 21 92 0.0 0.0 0.00 0.00 0.00 49 1014.1
20260503013604 21 92 0.0 0.0 0.00 0.00 0.00 49 1014.2
20260503012604 21 279 0.0 1.6 0.00 0.00 0.00 47 1014.1
20260503012104 21 238 0.0 0.0 0.00 0.00 0.00 45 1014.2
20260503011604 22 258 0.0 0.0 0.00 0.00 0.00 45 1014.2
20260503011104 22 259 0.0 3.2 0.00 0.00 0.00 43 1014.1
20260503010604 22 275 0.0 16.1 0.00 0.00 0.00 40 1014.1
20260503010104 22 321 1.6 9.7 0.00 0.00 0.00 43 1014.1
20260503005604 22 190 0.0 0.0 0.00 0.00 0.00 44 1014.1
20260503005104 22 190 0.0 3.2 0.00 0.00 0.00 45 1014.2
20260503004604 23 260 0.0 0.0 0.00 0.00 0.00 43 1014.2
20260503004105 23 260 3.2 20.9 0.00 0.00 0.00 37 1014.3
20260503003605 23 305 0.0 16.1 0.00 0.00 0.00 40 1014.3
20260503003104 23 297 1.6 9.7 0.00 0.00 0.00 42 1014.3
20260503002604 23 301 0.0 0.0 0.00 0.00 0.00 40 1014.3
20260503001604 23 304 1.6 9.7 0.00 0.00 0.00 35 1014.5
20260503001104 23 277 1.6 9.7 0.00 0.00 0.00 38 1014.5
20260503000104 23 305 4.8 25.7 0.00 0.00 0.00 37 1014.6
20260502235104 23 321 0.0 0.0 0.00 0.00 0.00 38 1014.7
20260502234604 23 335 3.2 14.5 0.00 0.00 0.00 38 1014.8
20260502234104 23 351 3.2 22.5 0.00 0.00 0.00 36 1014.8
20260502233605 23 328 0.0 3.2 0.00 0.00 0.00 41 1014.9
20260502233104 23 239 0.0 16.1 0.00 0.00 0.00 38 1014.9
20260502232604 23 355 0.0 0.0 0.00 0.00 0.00 37 1014.9
20260502232105 24 328 1.6 12.9 0.00 0.00 0.00 37 1015.0
20260502231604 24 322 0.0 0.0 0.00 0.00 0.00 38 1015.1
20260502230604 24 291 1.6 14.5 0.00 0.00 0.00 37 1015.3
20260502230104 24 329 8.0 22.5 0.00 0.00 0.00 36 1015.5
20260502225604 24 269 1.6 4.8 0.00 0.00 0.00 38 1015.6
20260502225104 24 55 3.2 9.7 0.00 0.00 0.00 39 1015.6
20260502224605 23 304 0.0 14.5 0.00 0.00 0.00 38 1015.6
20260502223604 23 271 0.0 9.7 0.00 0.00 0.00 36 1015.7
20260502223104 23 302 3.2 24.1 0.00 0.00 0.00 37 1015.8
20260502222604 23 2 1.6 14.5 0.00 0.00 0.00 42 1015.9
20260502222104 23 270 1.6 8.0 0.00 0.00 0.00 39 1015.8
20260502221605 23 325 1.6 16.1 0.00 0.00 0.00 42 1016.0
20260502221104 23 329 0.0 16.1 0.00 0.00 0.00 42 1016.0
20260502220604 23 251 3.2 14.5 0.00 0.00 0.00 41 1016.0
20260502215604 23 53 0.0 0.0 0.00 0.00 0.00 46 1016.0
20260502215104 23 317 9.7 24.1 0.00 0.00 0.00 45 1016.0
20260502214604 23 333 3.2 19.3 0.00 0.00 0.00 45 1016.0
20260502214104 23 332 0.0 3.2 0.00 0.00 0.00 47 1016.1
20260502213604 23 47 0.0 1.6 0.00 0.00 0.00 46 1016.1
20260502213104 23 319 1.6 9.7 0.00 0.00 0.00 46 1016.1
20260502212604 23 300 1.6 12.9 0.00 0.00 0.00 45 1016.2
20260502212104 23 333 1.6 8.0 0.00 0.00 0.00 43 1016.2
20260502211604 23 313 0.0 9.7 0.00 0.00 0.00 43 1016.2
20260502211104 23 334 3.2 12.9 0.00 0.00 0.00 45 1016.3
20260502210604 23 315 1.6 8.0 0.00 0.00 0.00 43 1016.3
20260502210104 23 331 3.2 12.9 0.00 0.00 0.00 40 1016.4
20260502205604 23 312 4.8 22.5 0.00 0.00 0.00 38 1016.5
20260502204604 23 312 1.6 9.7 0.00 0.00 0.00 40 1016.5
20260502204104 22 338 8.0 14.5 0.00 0.00 0.00 39 1016.5
20260502203104 22 49 0.0 12.9 0.00 0.00 0.00 40 1016.7
20260502202604 22 53 3.2 14.5 0.00 0.00 0.00 42 1016.7
20260502201604 22 335 8.0 19.3 0.00 0.00 0.00 44 1016.8
20260502200103 22 353 4.8 9.7 0.00 0.00 0.00 44 1016.9
20260502195604 22 328 3.2 24.1 0.00 0.00 0.00 46 1016.9
20260502195105 22 342 1.6 14.5 0.00 0.00 0.00 46 1017.0
20260502194604 22 313 6.4 25.7 0.00 0.00 0.00 47 1017.0
20260502194104 21 317 4.8 27.4 0.00 0.00 0.00 46 1017.0
20260502193604 21 305 3.2 12.9 0.00 0.00 0.00 48 1017.0
20260502193104 21 2 1.6 14.5 0.00 0.00 0.00 46 1017.1
20260502192605 21 316 8.0 24.1 0.00 0.00 0.00 48 1017.1
20260502191604 21 331 3.2 12.9 0.00 0.00 0.00 47 1017.2
20260502191104 21 335 8.0 19.3 0.00 0.00 0.00 47 1017.3
20260502190605 21 331 4.8 24.1 0.00 0.00 0.00 49 1017.2
20260502190104 21 43 9.7 27.4 0.00 0.00 0.00 47 1017.2
20260502185604 21 307 4.8 24.1 0.00 0.00 0.00 47 1017.3
20260502185104 21 304 8.0 22.5 0.00 0.00 0.00 46 1017.3
20260502184605 22 314 3.2 14.5 0.00 0.00 0.00 48 1017.3
20260502184104 21 329 0.0 8.0 0.00 0.00 0.00 51 1017.3
20260502183604 21 310 3.2 14.5 0.00 0.00 0.00 49 1017.4
20260502183104 21 348 1.6 14.5 0.00 0.00 0.00 51 1017.3
20260502182105 21 308 8.0 22.5 0.00 0.00 0.00 48 1017.3
20260502181603 21 317 4.8 19.3 0.00 0.00 0.00 49 1017.4
20260502181104 21 314 8.0 22.5 0.00 0.00 0.00 50 1017.4
20260502180604 21 310 1.6 14.5 0.00 0.00 0.00 52 1017.5
20260502180104 21 335 1.6 19.3 0.00 0.00 0.00 51 1017.4
20260502170104 19 34 0.0 3.2 0.00 0.00 0.00 56 1017.6
20260502164104 18 309 0.0 0.0 0.00 0.00 0.00 61 1017.4
20260502163603 17 300 1.6 12.9 0.00 0.00 0.00 61 1017.5
20260502163104 17 324 3.2 8.0 0.00 0.00 0.00 60 1017.5
20260502162604 17 15 0.0 9.7 0.00 0.00 0.00 62 1017.5
20260502162104 17 71 0.0 9.7 0.00 0.00 0.00 62 1017.6
20260502161604 17 349 0.0 0.0 0.00 0.00 0.00 62 1017.6
20260502161104 17 348 0.0 0.0 0.00 0.00 0.00 62 1017.6
20260502160604 17 35 0.0 9.7 0.00 0.00 0.00 64 1017.6
20260502160104 16 290 0.0 8.0 0.00 0.00 0.00 62 1017.5
20260502151604 16 12 0.0 14.5 0.00 0.00 0.00 62 1017.1
20260502151104 16 47 0.0 1.6 0.00 0.00 0.00 63 1017.0
20260502150604 16 331 0.0 0.0 0.00 0.00 0.00 62 1017.0
20260502150104 16 321 1.6 29.0 0.00 0.00 0.00 62 1017.1
20260502140105 15 11 8.0 22.5 0.00 0.00 0.00 66 1016.9
20260502130603 14 305 0.0 3.2 0.00 0.00 0.00 68 1016.4
20260502130104 14 319 1.6 14.5 0.00 0.00 0.00 69 1016.4
20260502123603 13 312 0.0 0.0 0.00 0.00 0.00 72 1016.5
20260502123104 13 322 0.0 8.0 0.00 0.00 0.00 71 1016.5
20260502122604 13 5 1.6 4.8 0.00 0.00 0.00 71 1016.4
20260502122104 13 351 0.0 8.0 0.00 0.00 0.00 71 1016.4
20260502121604 13 338 0.0 1.6 0.00 0.00 0.00 71 1016.3
20260502120603 13 63 0.0 9.7 0.00 0.00 0.00 70 1016.3
20260502115604 14 252 0.0 0.0 0.00 0.00 0.00 69 1016.3
20260502115104 14 235 0.0 0.0 0.00 0.00 0.00 69 1016.3
20260502114604 14 235 0.0 8.0 0.00 0.00 0.00 67 1016.3
20260502114104 15 355 0.0 1.6 0.00 0.00 0.00 67 1016.3
20260502113104 15 355 1.6 8.0 0.00 0.00 0.00 65 1016.3
20260502112604 15 317 8.0 22.5 0.00 0.00 0.00 65 1016.3
20260502112104 16 7 3.2 12.9 0.00 0.00 0.00 64 1016.3
20260502111604 16 348 4.8 19.3 0.00 0.00 0.00 63 1016.1
20260502111104 16 304 4.8 20.9 0.00 0.00 0.00 63 1016.2
20260502110604 16 330 1.6 19.3 0.00 0.00 0.00 63 1016.1
20260502110104 16 323 9.7 25.7 0.00 0.00 0.00 63 1016.1
20260502105604 15 289 8.0 22.5 0.00 0.00 0.00 63 1016.1
20260502105104 16 326 4.8 22.5 0.00 0.00 0.00 63 1016.1
20260502104103 15 326 1.6 19.3 0.00 0.00 0.00 63 1016.1
20260502103604 15 319 8.0 24.1 0.00 0.00 0.00 63 1016.1
20260502102604 15 313 4.8 19.3 0.00 0.00 0.00 63 1016.1
20260502101604 15 331 0.0 22.5 0.00 0.00 0.00 63 1016.1
20260502101105 15 327 0.0 14.5 0.00 0.00 0.00 63 1016.1
20260502100604 15 314 4.8 22.5 0.00 0.00 0.00 63 1016.1
20260502100104 15 326 3.2 12.9 0.00 0.00 0.00 62 1016.0
20260502091103 15 23 1.6 14.5 0.00 0.00 0.00 64 1016.0
20260502090604 15 20 8.0 22.5 0.00 0.00 0.00 63 1016.0
20260502080104 16 331 3.2 19.3 0.00 0.00 0.00 63 1016.1
20260502071103 16 313 3.2 22.5 0.00 0.00 0.00 64 1016.0
20260502070604 16 333 3.2 12.9 0.00 0.00 0.00 64 1016.0
20260502070104 16 318 1.6 20.9 0.00 0.00 0.00 64 1016.0
20260502065104 16 67 0.0 12.9 0.00 0.00 0.00 65 1016.1
20260502064604 16 333 3.2 9.7 0.00 0.00 0.00 65 1015.9
20260502064104 16 281 4.8 22.5 0.00 0.00 0.00 62 1015.9
20260502062604 16 321 1.6 16.1 0.00 0.00 0.00 64 1015.9
20260502061103 17 317 1.6 14.5 0.00 0.00 0.00 59 1015.8
20260502060604 17 348 9.7 22.5 0.00 0.00 0.00 59 1015.8
20260502055605 17 343 4.8 16.1 0.00 0.00 0.00 58 1015.7